DLH5T EDDS-LEMG

Flight info

Callsign DLH5T
Flight time N/A
Altitude 37000
Route ROTWE5B ROTWE Y126 TUBLO N850 NATOR DCT LUTIX DCT BENOT DCT NEMOS DCT NINTU DCT MEBAK DCT REPSI DCT LERGA DCT MINSO DCT NARAK DCT AGN DCT MAQAB DCT TIVLI DCT ELSAP DCT ZAR DCT EXEMU DCT PISUS DCT EDIMU DCT ADUXO DCT NUSGO DCT OBIBO DCT NASOS L27 BLN
Aircraft A359/H-SDE2E3GHIJ3J4J5LM1ORWXY/LB1D1

Departure

Time 2026-05-08 06:48
Airport Stuttgart Airport (EDDS)

Arrival

Time N/A
Airport Málaga-Costa del Sol Airport (LEMG)
Time Latitude Longitude Altitude Speed Heading
2026-05-08 06:11 48.68844 9.19211 1322 ft 0 kts 344°
2026-05-08 06:39 48.68837 9.19214 1322 ft 3 kts 338°
2026-05-08 06:39 48.68819 9.19227 1322 ft 3 kts 337°
2026-05-08 06:39 48.68802 9.19236 1325 ft 3 kts 355°
2026-05-08 06:39 48.68785 9.19233 1327 ft 3 kts 42°
2026-05-08 06:40 48.68774 9.19209 1326 ft 3 kts 70°
2026-05-08 06:40 48.68768 9.19180 1323 ft 3 kts 76°
2026-05-08 06:40 48.68764 9.19155 1325 ft 0 kts 74°
2026-05-08 06:43 48.68765 9.19159 1323 ft 2 kts 74°
2026-05-08 06:43 48.68773 9.19206 1325 ft 7 kts 74°
2026-05-08 06:43 48.68793 9.19315 1321 ft 13 kts 74°
2026-05-08 06:44 48.68819 9.19453 1318 ft 9 kts 74°
2026-05-08 06:44 48.68834 9.19537 1317 ft 0 kts 74°
2026-05-08 06:44 48.68835 9.19538 1317 ft 1 kts 74°
2026-05-08 06:45 48.68842 9.19575 1316 ft 7 kts 73°
2026-05-08 06:45 48.68862 9.19674 1316 ft 12 kts 72°
2026-05-08 06:45 48.68887 9.19800 1311 ft 13 kts 77°
2026-05-08 06:45 48.68829 9.19911 1304 ft 18 kts 153°
2026-05-08 06:46 48.68707 9.19976 1297 ft 10 kts 162°
2026-05-08 06:46 48.68629 9.20014 1291 ft 16 kts 162°
2026-05-08 06:46 48.68591 9.20062 1290 ft 6 kts 108°
2026-05-08 06:46 48.68597 9.20142 1288 ft 0 kts 73°
2026-05-08 06:47 48.68597 9.20144 1288 ft 1 kts 73°
2026-05-08 06:48 48.68607 9.20193 1287 ft 11 kts 73°
2026-05-08 06:48 48.68705 9.20703 1278 ft 94 kts 74°
2026-05-08 06:48 48.68955 9.22027 1265 ft 166 kts 74°
2026-05-08 06:48 48.69287 9.23808 1911 ft 179 kts 75°
2026-05-08 06:49 48.69624 9.25667 2853 ft 189 kts 75°
2026-05-08 06:49 48.69807 9.27756 3400 ft 213 kts 95°
2026-05-08 06:49 48.69255 9.29922 3954 ft 236 kts 126°
2026-05-08 06:49 48.68039 9.31711 4661 ft 253 kts 148°
2026-05-08 06:50 48.66350 9.32537 5567 ft 261 kts 179°
2026-05-08 06:50 48.64621 9.31960 6611 ft 261 kts 210°
2026-05-08 06:50 48.63301 9.30122 7741 ft 261 kts 237°
2026-05-08 06:50 48.62388 9.27728 8878 ft 266 kts 243°
2026-05-08 06:51 48.61644 9.25147 9998 ft 271 kts 253°
2026-05-08 06:51 48.61129 9.22332 10805 ft 288 kts 256°
2026-05-08 06:51 48.60616 9.19284 11478 ft 308 kts 256°
2026-05-08 06:51 48.60073 9.16104 12468 ft 316 kts 256°
2026-05-08 06:52 48.59508 9.12863 13541 ft 322 kts 256°
2026-05-08 06:52 48.58935 9.09608 14500 ft 328 kts 256°
2026-05-08 06:52 48.58340 9.06263 15438 ft 332 kts 255°
2026-05-08 06:52 48.57735 9.02871 16371 ft 337 kts 255°
2026-05-08 06:53 48.57119 8.99432 17352 ft 341 kts 255°
2026-05-08 06:53 48.56494 8.95953 18343 ft 346 kts 255°
2026-05-08 06:53 48.55859 8.92423 19224 ft 351 kts 255°
2026-05-08 06:53 48.55215 8.88852 20134 ft 355 kts 255°
2026-05-08 06:54 48.54562 8.85241 21006 ft 359 kts 255°
2026-05-08 06:54 48.53909 8.81637 21876 ft 363 kts 255°
2026-05-08 06:54 48.53237 8.77939 22762 ft 367 kts 255°
2026-05-08 06:54 48.52559 8.74210 23602 ft 372 kts 255°
2026-05-08 06:55 48.51870 8.70429 24315 ft 376 kts 255°
2026-05-08 06:55 48.51174 8.66611 25043 ft 379 kts 255°
2026-05-08 06:55 48.50475 8.62751 25737 ft 383 kts 254°
2026-05-08 06:55 48.49768 8.58861 26448 ft 387 kts 254°